Airfield :
LOGIN :

Register | Disclaimer

   EN    FR    IT 

 










Legend :    VFR   Marginal VFR   IFR   Intensive IFR   Very Intensive IFR
Visi :
Ceiling :
>= 8 km
>= 3000ft
5 to 8 km
1000 to 3000 ft
1500m to 5 km
500 to 1000 ft
800 to 1500m
200 to 500 ft
< 800m
< 200 ft
Symbols :   Thunderstorms  Fog  Heavy snow  Heavy precipitations  Wind > 20 kt
SIGMETs :     Misc.  Thunderstorms  Icing  Turbulence  Mountain Waves  Volcanic Ashes







- Airport Elevation : 1234 ft
- IATA code : LUX


ELLX - Luxembourg Findel

CURRENT METAR :
  • 221020Z 21009KT 170V260 9999 FEW028 14/07 Q1022 NOSIG

EXPIRED METARs :
  • 220950Z 22009KT 190V250 9999 FEW021 13/07 Q1023 NOSIG
  • 220920Z 22009KT 180V260 9999 FEW020 13/07 Q1023 NOSIG
  • 220850Z 19006KT 140V250 CAVOK 11/07 Q1023 NOSIG
  • 220820Z 20005KT 160V230 CAVOK 11/07 Q1023 NOSIG
  • 220750Z 19006KT 160V230 CAVOK 10/06 Q1023 NOSIG

TAF TAF ELLX
Valid from the 22 at 06:00 until the 23 at 12:00 UTC


220500Z 2206/2312 26004KT CAVOK
BECMG 2221/2224 22010KT -RA SCT005 BKN030
TEMPO 2300/2310 25010G20KT RA SCT004 BKN012
TEMPO 2310/2312 26025G40KT
ATIS : +352 4798 27300
Met : +352 4798 27010 / 27050
No reported NOTAMs for that airfield.



MET'MAP, your aeronautical weather chart ! - Copyright ORBIFLY December 2007 - Disclaimer

ORBIFLY MET'MAP TEAM :

Programming & Development : Alexandra Zaïnal
Concept & Development : Baudouin d'Aumeries
Co-Development & Prog : Marc-Olivier Méhu
Technical & hardware support : Manuel Goepfert

Contact : metmap@orbifly.com




SOURCES & CREDITS :

   NOAA